• In India
  • List of Countries
  • For 7 days
  • Water Temperature
  • Satellite Maps
  • Weather Map
  • Weather Widgets
  • user-avatar
    Login

    Hourly Weather Zamhlai

    Today, 22 September, Saturday

    Time Temperature Precipitation Wind Pressure Humidity
    00:00 +18°C° 0 mm 3 mps 751 mmHg 68%
    01:00 +18°C° 0 mm 3 mps 751 mmHg 69%
    02:00 +17°C° 0 mm 3 mps 751 mmHg 68%
    03:00 +17°C° 0 mm 3 mps 750 mmHg 69%
    04:00 +17°C° 0 mm 3 mps 750 mmHg 70%
    05:00 +17°C° 0 mm 3 mps 750 mmHg 71%
    06:00 +18°C° 0 mm 4 mps 750 mmHg 67%
    07:00 +19°C° 0 mm 4 mps 750 mmHg 64%
    08:00 +20°C° 0 mm 5 mps 749 mmHg 61%
    09:00 +22°C° 0 mm 5 mps 749 mmHg 53%
    10:00 +24°C° 0 mm 6 mps 749 mmHg 46%
    11:00 +27°C° 0 mm 7 mps 748 mmHg 38%
    12:00 +28°C° 0 mm 7 mps 748 mmHg 37%
    13:00 +28°C° 0 mm 7 mps 747 mmHg 36%
    14:00 +28°C° 0 mm 7 mps 747 mmHg 35%
    15:00 +27°C° 0 mm 6 mps 747 mmHg 41%
    16:00 +24°C° 0 mm 6 mps 747 mmHg 48%
    17:00 +23°C° 0 mm 5 mps 747 mmHg 54%
    18:00 +20°C° 0.3 mm 5 mps 747 mmHg 64%
    19:00 +16°C° 0.3 mm 6 mps 748 mmHg 73%
    20:00 +14°C° 0.3 mm 6 mps 748 mmHg 83%
    21:00 +13°C° 1 mm 6 mps 748 mmHg 84%
    22:00 +11°C° 1 mm 6 mps 749 mmHg 85%
    23:00 +9°C° 1 mm 6 mps 749 mmHg 86%

    Tomorrow, 23 September, Sunday

    Time Temperature Precipitation Wind Pressure Humidity
    00:00 +9°C° 1.7 mm 5 mps 749 mmHg 87%
    01:00 +10°C° 1.7 mm 4 mps 749 mmHg 88%
    02:00 +9°C° 1.7 mm 3 mps 750 mmHg 89%
    03:00 +9°C° 0 mm 3 mps 750 mmHg 90%
    04:00 +9°C° 0 mm 3 mps 750 mmHg 91%
    05:00 +9°C° 0 mm 3 mps 750 mmHg 92%
    06:00 +10°C° 0 mm 3 mps 750 mmHg 91%
    07:00 +10°C° 0 mm 4 mps 750 mmHg 89%
    08:00 +10°C° 0 mm 4 mps 749 mmHg 88%
    09:00 +12°C° 0 mm 4 mps 750 mmHg 81%
    10:00 +13°C° 0 mm 4 mps 750 mmHg 74%
    11:00 +14°C° 0 mm 4 mps 750 mmHg 67%
    12:00 +15°C° 0 mm 4 mps 749 mmHg 61%
    13:00 +17°C° 0 mm 4 mps 749 mmHg 56%
    14:00 +18°C° 0 mm 4 mps 749 mmHg 51%
    15:00 +17°C° 0 mm 4 mps 749 mmHg 54%
    16:00 +16°C° 0 mm 3 mps 749 mmHg 57%
    17:00 +16°C° 0 mm 2 mps 749 mmHg 60%
    18:00 +15°C° 0 mm 2 mps 749 mmHg 63%
    19:00 +13°C° 0 mm 2 mps 749 mmHg 66%
    20:00 +12°C° 0 mm 2 mps 749 mmHg 69%
    21:00 +11°C° 0 mm 3 mps 749 mmHg 71%
    22:00 +11°C° 0 mm 3 mps 749 mmHg 72%
    23:00 +10°C° 0 mm 3 mps 748 mmHg 74%

    Day after tomorrow, 24 September, Monday

    Time Temperature Precipitation Wind Pressure Humidity
    00:00 +10°C° 0 mm 3 mps 748 mmHg 74%
    01:00 +10°C° 0 mm 3 mps 747 mmHg 75%
    02:00 +11°C° 0 mm 3 mps 747 mmHg 75%
    03:00 +11°C° 0.3 mm 4 mps 746 mmHg 76%
    04:00 +10°C° 0.3 mm 5 mps 745 mmHg 77%
    05:00 +10°C° 0.3 mm 5 mps 744 mmHg 79%
    06:00 +10°C° 3.4 mm 5 mps 742 mmHg 81%
    07:00 +10°C° 3.4 mm 5 mps 741 mmHg 83%
    08:00 +10°C° 3.4 mm 5 mps 740 mmHg 85%
    09:00 +11°C° 1.4 mm 6 mps 739 mmHg 86%
    10:00 +11°C° 1.4 mm 7 mps 738 mmHg 88%
    11:00 +12°C° 1.4 mm 7 mps 736 mmHg 89%
    12:00 +13°C° 0.7 mm 9 mps 736 mmHg 85%
    13:00 +13°C° 0.7 mm 10 mps 735 mmHg 81%
    14:00 +13°C° 0.7 mm 11 mps 735 mmHg 77%
    15:00 +12°C° 0 mm 11 mps 736 mmHg 76%
    16:00 +10°C° 0 mm 12 mps 736 mmHg 75%
    17:00 +8°C° 0 mm 12 mps 737 mmHg 75%
    18:00 +8°C° 0 mm 11 mps 739 mmHg 73%
    19:00 +8°C° 0 mm 10 mps 740 mmHg 71%
    20:00 +8°C° 0 mm 9 mps 741 mmHg 69%
    21:00 +9°C° 0 mm 8 mps 742 mmHg 72%
    22:00 +7°C° 0 mm 8 mps 742 mmHg 75%
    23:00 +8°C° 0 mm 7 mps 743 mmHg 77%

    25 September, Tuesday

    Time Temperature Precipitation Wind Pressure Humidity
    00:00 +8°C° 0 mm 6 mps 744 mmHg 79%
    01:00 +7°C° 0 mm 6 mps 744 mmHg 81%
    02:00 +7°C° 0 mm 6 mps 745 mmHg 82%
    03:00 +7°C° 0 mm 6 mps 745 mmHg 82%
    04:00 +7°C° 0 mm 6 mps 746 mmHg 81%
    05:00 +7°C° 0 mm 6 mps 746 mmHg 81%
    06:00 +7°C° 0 mm 6 mps 747 mmHg 78%
    07:00 +6°C° 0 mm 7 mps 748 mmHg 76%
    08:00 +6°C° 0 mm 7 mps 748 mmHg 73%
    09:00 +8°C° 0 mm 7 mps 749 mmHg 68%
    10:00 +9°C° 0 mm 8 mps 749 mmHg 62%
    11:00 +10°C° 0 mm 8 mps 750 mmHg 57%
    12:00 +10°C° 0.1 mm 8 mps 750 mmHg 56%
    13:00 +10°C° 0.1 mm 8 mps 751 mmHg 54%
    14:00 +10°C° 0.1 mm 8 mps 751 mmHg 53%
    15:00 +9°C° 0.1 mm 7 mps 752 mmHg 55%
    16:00 +9°C° 0.1 mm 6 mps 752 mmHg 57%
    17:00 +8°C° 0.1 mm 5 mps 753 mmHg 59%
    18:00 +7°C° 0 mm 5 mps 753 mmHg 62%
    19:00 +6°C° 0 mm 4 mps 754 mmHg 65%
    20:00 +6°C° 0 mm 4 mps 755 mmHg 68%
    21:00 +5°C° 0 mm 4 mps 755 mmHg 69%
    22:00 +5°C° 0 mm 4 mps 755 mmHg 69%
    23:00 +5°C° 0 mm 4 mps 756 mmHg 70%

    26 September, Wednesday

    Time Temperature Precipitation Wind Pressure Humidity
    00:00 +4°C° 0 mm 4 mps 756 mmHg 69%
    01:00 +4°C° 0 mm 4 mps 757 mmHg 68%
    02:00 +4°C° 0 mm 4 mps 758 mmHg 67%
    03:00 +3°C° 0 mm 4 mps 758 mmHg 71%
    04:00 +3°C° 0 mm 4 mps 758 mmHg 74%
    05:00 +1°C° 0 mm 4 mps 758 mmHg 78%
    06:00 +3°C° 0 mm 4 mps 758 mmHg 75%
    07:00 +3°C° 0 mm 5 mps 758 mmHg 72%
    08:00 +6°C° 0 mm 5 mps 758 mmHg 69%
    09:00 +7°C° 0 mm 6 mps 758 mmHg 65%
    10:00 +9°C° 0 mm 6 mps 758 mmHg 60%
    11:00 +11°C° 0 mm 7 mps 758 mmHg 56%
    12:00 +12°C° 0 mm 7 mps 757 mmHg 56%
    13:00 +12°C° 0 mm 7 mps 757 mmHg 56%
    14:00 +13°C° 0 mm 8 mps 756 mmHg 56%
    15:00 +12°C° 0 mm 7 mps 756 mmHg 58%
    16:00 +11°C° 0 mm 6 mps 756 mmHg 60%
    17:00 +12°C° 0 mm 5 mps 755 mmHg 62%
    18:00 +10°C° 0 mm 5 mps 755 mmHg 63%
    19:00 +9°C° 0 mm 5 mps 755 mmHg 64%
    20:00 +9°C° 0 mm 6 mps 756 mmHg 65%
    21:00 +8°C° 0 mm 5 mps 755 mmHg 65%
    22:00 +8°C° 0 mm 5 mps 755 mmHg 66%
    23:00 +7°C° 0 mm 5 mps 754 mmHg 66%

    27 September, Thursday

    Time Temperature Precipitation Wind Pressure Humidity
    00:00 +7°C° 0 mm 6 mps 754 mmHg 66%
    01:00 +7°C° 0 mm 6 mps 753 mmHg 66%
    02:00 +8°C° 0 mm 6 mps 753 mmHg 66%
    03:00 +8°C° 0 mm 6 mps 752 mmHg 65%
    04:00 +8°C° 0 mm 7 mps 752 mmHg 64%
    05:00 +8°C° 0 mm 7 mps 751 mmHg 63%
    06:00 +9°C° 0 mm 7 mps 751 mmHg 65%
    07:00 +9°C° 0 mm 7 mps 751 mmHg 66%
    08:00 +10°C° 0 mm 7 mps 751 mmHg 67%
    09:00 +11°C° 0 mm 7 mps 750 mmHg 64%
    10:00 +12°C° 0 mm 7 mps 750 mmHg 61%
    11:00 +14°C° 0 mm 7 mps 750 mmHg 58%
    12:00 +14°C° 0.1 mm 7 mps 750 mmHg 60%
    13:00 +14°C° 0.1 mm 7 mps 749 mmHg 61%
    14:00 +12°C° 0.1 mm 7 mps 749 mmHg 63%
    15:00 +14°C° 0 mm 6 mps 748 mmHg 62%
    16:00 +14°C° 0 mm 6 mps 748 mmHg 62%
    17:00 +14°C° 0 mm 5 mps 747 mmHg 61%
    18:00 +14°C° 0 mm 5 mps 747 mmHg 61%
    19:00 +14°C° 0 mm 5 mps 747 mmHg 62%
    20:00 +13°C° 0 mm 6 mps 747 mmHg 62%
    21:00 +13°C° 0.1 mm 6 mps 747 mmHg 65%
    22:00 +13°C° 0.1 mm 6 mps 747 mmHg 68%
    23:00 +13°C° 0.1 mm 6 mps 746 mmHg 71%
    Show more